STARLINK-32227, 60361

Orbit data source: Space-Track

STARLINK-32227, 60361 is a payload satellite owned by SpaceX/Seattle (US) in LEO that was launched on Sun, 04 Aug 2024 UTC via an FALCON 9 launch vehicle from the Air Force Western Test Range (AFWTR). Payload-class satellites include a variety of spacecraft equipped with specific instruments for various scientific and technological missions. These include communications satellites like Starlink; space stations such as the ISS; scientific satellites like the Hubble; Earth observation satellites from companies like Planet Labs, Umbra, and HawkEye 360; GPS; miniature CubeSats for education and research; and military/defense satellites.

Loading next visibility...
Identifier
60361, 2024-138G
Orbit
LEO
Country
Flag of USUS
Related business
Manufacturer
SpaceX/Seattle
Mission
Operational Commercial Communications
Bus & Motor
STARLINK V2M, Unknown motor
Mass
730 kg wet, ~700 kg dry
Launch date (UTC)
2024-08-04 (2 years ago)
Launch vehicle
FALCON 9
Launch site
Air Force Western Test Range (AFWTR)
Object type
Payload
Rocket body
Debris
Shape & HBR
Box + 2 Pan, 17.7 m
Radar Cross Section
33.884 m², Large (>1 m²)

Expand to show TLE details & history
Last TLE update: 7 hours ago

TLE from 7 hours ago
0 STARLINK-32227
1 60361U 24138G   26258.40862204  .00000036  00000-0  12196-4 0  9995
2 60361  53.1624 147.7232 0001517  92.7985 267.3191 15.34385344119694
Epoch: 2026-09-15T09:48Z
TLE epoch observation values (Epoch: 2026-09-15T09:48:24.944Z)
Latitude
-0.00003°
Longitude
6.24425°
Altitude
463.697 km
Speed
7.636 km/s
True Right ascension
09h 50m 53s
True Declination
0° 00' 00"
Sunlit
Object was in daylight at epoch
Visualization orbit readout
Latitude
Unknown
Longitude
Unknown
Altitude
Unknown
Speed
Unknown
Apparent Right ascension
Unknown
Apparent Declination
Unknown
Sunlit
N/A
Visualization observer readout
Local Sidereal Time
09:26:13
Azimuth
Unknown
Elevation
Unknown
Doppler factor
Unknown
Orbital elements
Apogee altitude
464.041 km
Perigee altitude
461.965 km
Semi-major axis
6,841.14 km
Eccentricity
0.00015
Inclination
53.1624°
RAAN
147.7232°
Arg. of periapsis
92.7985°
True anomaly
267.30174°
Mean anomaly
267.3191°
Eccentric anomaly
267.31042°
Mean motion
3.83575 °/min
Orbital period
93.85 mins
BSTAR
0.000012196
Loading maneuver chart data...
Computing Atmospheric mass density...
Loading historical data...
Loading historical data...
Loading historical data...
Loading historical data...
Loading historical data...
Loading historical data...
Loading historical data...

Documentation

Showing up to 5 results
|